• In Hungary
  • List of Countries
  • For 7 days
  • Water Temperature
  • Satellite Maps
  • Weather Map
  • News
  • Weather Widgets
  • user-avatar
    Login

    Hourly Weather Milik

    Today, 21 October, Sunday

    Time Temperature Precipitation Wind Pressure Humidity
    00:00 +7°C° 0.2 mm 3 mps 722 mmHg 84%
    01:00 +5°C° 0.2 mm 3 mps 722 mmHg 83%
    02:00 +5°C° 0.4 mm 3 mps 722 mmHg 85%
    03:00 +4°C° 0.4 mm 3 mps 722 mmHg 86%
    04:00 +4°C° 0.4 mm 3 mps 722 mmHg 88%
    05:00 +4°C° 0.7 mm 3 mps 722 mmHg 89%
    06:00 +4°C° 0.7 mm 3 mps 722 mmHg 89%
    07:00 +4°C° 0 mm 3 mps 723 mmHg 89%
    08:00 +5°C° 0.5 mm 3 mps 723 mmHg 89%
    09:00 +5°C° 0.5 mm 3 mps 723 mmHg 89%
    10:00 +5°C° 0.5 mm 4 mps 724 mmHg 89%
    11:00 +7°C° 0 mm 3 mps 724 mmHg 85%
    12:00 +8°C° 0 mm 3 mps 724 mmHg 81%
    13:00 +9°C° 0 mm 3 mps 724 mmHg 78%
    14:00 +9°C° 0 mm 3 mps 724 mmHg 78%
    15:00 +8°C° 0 mm 3 mps 724 mmHg 78%
    16:00 +8°C° 0 mm 3 mps 724 mmHg 78%
    17:00 +7°C° 0 mm 2 mps 724 mmHg 81%
    18:00 +7°C° 0 mm 2 mps 725 mmHg 84%
    19:00 +6°C° 0 mm 2 mps 725 mmHg 87%
    20:00 +5°C° 0 mm 2 mps 725 mmHg 88%
    21:00 +6°C° 0 mm 1 mps 725 mmHg 88%
    22:00 +5°C° 0 mm 1 mps 725 mmHg 89%
    23:00 +5°C° 0 mm 1 mps 725 mmHg 89%

    Tomorrow, 22 October, Monday

    Time Temperature Precipitation Wind Pressure Humidity
    00:00 +5°C° 0 mm 1 mps 725 mmHg 89%
    01:00 +5°C° 0 mm 1 mps 725 mmHg 89%
    02:00 +5°C° 0 mm 1 mps 725 mmHg 88%
    03:00 +4°C° 0 mm 1 mps 724 mmHg 88%
    04:00 +4°C° 0 mm 1 mps 724 mmHg 88%
    05:00 +4°C° 0 mm 1 mps 724 mmHg 86%
    06:00 +5°C° 0 mm 1 mps 724 mmHg 85%
    07:00 +5°C° 0 mm 1 mps 724 mmHg 83%
    08:00 +7°C° 0 mm 1 mps 724 mmHg 74%
    09:00 +9°C° 0 mm 1 mps 725 mmHg 65%
    10:00 +12°C° 0 mm 1 mps 725 mmHg 56%
    11:00 +12°C° 0 mm 1 mps 724 mmHg 54%
    12:00 +13°C° 0 mm 1 mps 724 mmHg 51%
    13:00 +14°C° 0 mm 1 mps 724 mmHg 48%
    14:00 +13°C° 0 mm 1 mps 723 mmHg 53%
    15:00 +12°C° 0 mm 1 mps 723 mmHg 59%
    16:00 +11°C° 0 mm 1 mps 723 mmHg 64%
    17:00 +10°C° 0 mm 1 mps 723 mmHg 68%
    18:00 +8°C° 0 mm 1 mps 723 mmHg 73%
    19:00 +7°C° 0 mm 1 mps 723 mmHg 77%
    20:00 +7°C° 0 mm 1 mps 723 mmHg 79%
    21:00 +6°C° 0 mm 1 mps 723 mmHg 81%
    22:00 +6°C° 0 mm 1 mps 723 mmHg 82%
    23:00 +7°C° 0.1 mm 1 mps 723 mmHg 82%

    Day after tomorrow, 23 October, Tuesday

    Time Temperature Precipitation Wind Pressure Humidity
    00:00 +7°C° 0.1 mm 1 mps 723 mmHg 81%
    01:00 +7°C° 0.1 mm 1 mps 722 mmHg 81%
    02:00 +6°C° 0.3 mm 2 mps 722 mmHg 82%
    03:00 +6°C° 0.3 mm 2 mps 722 mmHg 84%
    04:00 +6°C° 0.3 mm 2 mps 722 mmHg 86%
    05:00 +6°C° 0.1 mm 2 mps 722 mmHg 87%
    06:00 +6°C° 0.1 mm 2 mps 722 mmHg 88%
    07:00 +5°C° 0.1 mm 2 mps 722 mmHg 89%
    08:00 +6°C° 0 mm 2 mps 722 mmHg 83%
    09:00 +7°C° 0 mm 2 mps 722 mmHg 77%
    10:00 +7°C° 0 mm 3 mps 721 mmHg 71%
    11:00 +8°C° 0 mm 3 mps 721 mmHg 68%
    12:00 +8°C° 0 mm 3 mps 720 mmHg 64%
    13:00 +9°C° 0 mm 3 mps 719 mmHg 60%
    14:00 +8°C° 0.3 mm 3 mps 718 mmHg 66%
    15:00 +7°C° 0.3 mm 3 mps 717 mmHg 71%
    16:00 +7°C° 0.3 mm 3 mps 716 mmHg 77%
    17:00 +5°C° 0.1 mm 3 mps 716 mmHg 79%
    18:00 +5°C° 0.1 mm 3 mps 715 mmHg 81%
    19:00 +4°C° 0.1 mm 3 mps 714 mmHg 83%
    20:00 +5°C° 0.4 mm 4 mps 713 mmHg 83%
    21:00 +5°C° 0.4 mm 4 mps 712 mmHg 83%
    22:00 +5°C° 0.4 mm 4 mps 711 mmHg 83%
    23:00 +5°C° 0.3 mm 5 mps 710 mmHg 83%

    24 October, Wednesday

    Time Temperature Precipitation Wind Pressure Humidity
    00:00 +6°C° 0.3 mm 5 mps 709 mmHg 83%
    01:00 +6°C° 0.3 mm 5 mps 708 mmHg 83%
    02:00 +7°C° 1 mm 6 mps 708 mmHg 84%
    03:00 +7°C° 1 mm 6 mps 707 mmHg 85%
    04:00 +7°C° 1 mm 6 mps 706 mmHg 86%
    05:00 +5°C° 1.6 mm 7 mps 707 mmHg 83%
    06:00 +4°C° 1.6 mm 7 mps 707 mmHg 81%
    07:00 +4°C° 1.6 mm 7 mps 707 mmHg 79%
    08:00 +2°C° 0.4 mm 8 mps 708 mmHg 73%
    09:00 +2°C° 0.4 mm 8 mps 709 mmHg 67%
    10:00 +1°C° 0.4 mm 9 mps 709 mmHg 62%
    11:00 +2°C° 0.1 mm 9 mps 710 mmHg 58%
    12:00 +2°C° 0.1 mm 9 mps 710 mmHg 54%
    13:00 +2°C° 0.1 mm 9 mps 710 mmHg 50%
    14:00 +2°C° 0 mm 8 mps 711 mmHg 52%
    15:00 +3°C° 0 mm 7 mps 711 mmHg 54%
    16:00 +2°C° 0 mm 7 mps 711 mmHg 56%
    17:00 +2°C° 0 mm 7 mps 712 mmHg 57%
    18:00 +2°C° 0 mm 7 mps 712 mmHg 58%
    19:00 +1°C° 0 mm 6 mps 713 mmHg 59%
    20:00 +1°C° 0 mm 6 mps 713 mmHg 61%
    21:00 +1°C° 0 mm 6 mps 713 mmHg 63%
    22:00 -1°C° 0 mm 6 mps 714 mmHg 65%
    23:00 -1°C° 0 mm 6 mps 714 mmHg 67%

    25 October, Thursday

    Time Temperature Precipitation Wind Pressure Humidity
    00:00 -1°C° 0 mm 5 mps 714 mmHg 70%
    01:00 -1°C° 0 mm 5 mps 715 mmHg 72%
    02:00 -1°C° 0 mm 4 mps 715 mmHg 74%
    03:00 -1°C° 0 mm 4 mps 715 mmHg 77%
    04:00 -1°C° 0 mm 4 mps 715 mmHg 79%
    05:00 -1°C° 0 mm 4 mps 715 mmHg 80%
    06:00 0°C° 0 mm 3 mps 715 mmHg 80%
    07:00 0°C° 0 mm 3 mps 715 mmHg 80%
    08:00 +2°C° 0.1 mm 3 mps 715 mmHg 78%
    09:00 +3°C° 0.1 mm 3 mps 715 mmHg 76%
    10:00 +4°C° 0.1 mm 3 mps 715 mmHg 74%
    11:00 +5°C° 0.9 mm 4 mps 714 mmHg 77%
    12:00 +6°C° 0.9 mm 4 mps 713 mmHg 79%
    13:00 +6°C° 0.9 mm 5 mps 713 mmHg 81%
    14:00 +7°C° 0.3 mm 4 mps 713 mmHg 82%
    15:00 +7°C° 0.3 mm 4 mps 713 mmHg 84%
    16:00 +7°C° 0.3 mm 4 mps 713 mmHg 85%
    17:00 +6°C° 0.1 mm 4 mps 713 mmHg 87%
    18:00 +6°C° 0.1 mm 4 mps 713 mmHg 88%
    19:00 +6°C° 0.1 mm 4 mps 713 mmHg 90%
    20:00 +6°C° 0.1 mm 4 mps 714 mmHg 89%
    21:00 +6°C° 0.1 mm 4 mps 714 mmHg 89%
    22:00 +6°C° 0.1 mm 4 mps 714 mmHg 89%
    23:00 +6°C° 0.1 mm 4 mps 714 mmHg 89%

    26 October, Friday

    Time Temperature Precipitation Wind Pressure Humidity
    00:00 +7°C° 0.1 mm 3 mps 714 mmHg 90%
    01:00 +7°C° 0.1 mm 3 mps 714 mmHg 91%
    02:00 +7°C° 0.1 mm 3 mps 714 mmHg 91%
    03:00 +7°C° 0.1 mm 3 mps 715 mmHg 90%
    04:00 +7°C° 0.1 mm 3 mps 715 mmHg 90%
    05:00 +6°C° 0 mm 2 mps 715 mmHg 90%
    06:00 +6°C° 0 mm 2 mps 715 mmHg 90%
    07:00 +6°C° 0 mm 2 mps 715 mmHg 90%
    08:00 +7°C° 0 mm 2 mps 715 mmHg 83%
    09:00 +9°C° 0 mm 2 mps 716 mmHg 75%
    10:00 +12°C° 0 mm 2 mps 716 mmHg 68%
    11:00 +12°C° 0 mm 2 mps 716 mmHg 64%
    12:00 +13°C° 0 mm 2 mps 715 mmHg 60%
    13:00 +13°C° 0 mm 3 mps 715 mmHg 57%
    14:00 +13°C° 0 mm 2 mps 715 mmHg 62%
    15:00 +12°C° 0 mm 2 mps 714 mmHg 68%
    16:00 +10°C° 0 mm 2 mps 714 mmHg 73%
    17:00 +9°C° 0 mm 2 mps 714 mmHg 76%
    18:00 +8°C° 0 mm 3 mps 714 mmHg 80%
    19:00 +7°C° 0 mm 3 mps 713 mmHg 83%
    20:00 +7°C° 0 mm 3 mps 713 mmHg 84%
    21:00 +8°C° 0 mm 3 mps 713 mmHg 85%
    22:00 +8°C° 0 mm 3 mps 712 mmHg 87%
    23:00 +7°C° 0 mm 4 mps 712 mmHg 87%
    Show more